• In Russia
  • List of Countries
  • For 7 days
  • Water Temperature
  • Satellite Maps
  • Weather Map
  • Weather Widgets
  • user-avatar
    Login

    Hourly Weather Solden

    Today, 24 April, Monday

    Time Temperature Precipitation Wind Pressure Humidity
    00:00 -6°C° 0 mm 1 mps 580 mmHg 90%
    01:00 -7°C° 0 mm 1 mps 580 mmHg 91%
    02:00 -6°C° 0 mm 1 mps 580 mmHg 91%
    03:00 -6°C° 0 mm 1 mps 580 mmHg 91%
    04:00 -6°C° 0 mm 1 mps 580 mmHg 92%
    05:00 -3°C° 0 mm 1 mps 580 mmHg 90%
    06:00 -2°C° 0 mm 1 mps 581 mmHg 89%
    07:00 -1°C° 0 mm 1 mps 582 mmHg 87%
    08:00 +1°C° 0 mm 1 mps 582 mmHg 84%
    09:00 +1°C° 0 mm 2 mps 582 mmHg 81%
    10:00 +2°C° 0 mm 2 mps 583 mmHg 78%
    11:00 +3°C° 0.1 mm 2 mps 583 mmHg 77%
    12:00 +3°C° 0.1 mm 2 mps 583 mmHg 76%
    13:00 +4°C° 0.1 mm 2 mps 583 mmHg 75%
    14:00 +4°C° 0.2 mm 2 mps 582 mmHg 76%
    15:00 +4°C° 0.2 mm 2 mps 582 mmHg 77%
    16:00 +4°C° 0.2 mm 2 mps 582 mmHg 78%
    17:00 +2°C° 0.1 mm 2 mps 581 mmHg 84%
    18:00 +1°C° 0.1 mm 2 mps 580 mmHg 89%
    19:00 +1°C° 0.1 mm 1 mps 579 mmHg 94%
    20:00 0°C° 0.1 mm 1 mps 579 mmHg 95%
    21:00 0°C° 0.1 mm 1 mps 579 mmHg 96%
    22:00 -1°C° 0.1 mm 1 mps 579 mmHg 97%
    23:00 -1°C° 0.1 mm 1 mps 579 mmHg 97%

    Tomorrow, 25 April, Tuesday

    Time Temperature Precipitation Wind Pressure Humidity
    00:00 -1°C° 0.1 mm 1 mps 579 mmHg 97%
    01:00 -1°C° 0.1 mm 1 mps 579 mmHg 97%
    02:00 -1°C° 0.1 mm 1 mps 578 mmHg 97%
    03:00 -1°C° 0.1 mm 1 mps 578 mmHg 97%
    04:00 -2°C° 0.1 mm 1 mps 577 mmHg 97%
    05:00 -1°C° 0.1 mm 1 mps 577 mmHg 95%
    06:00 0°C° 0.1 mm 1 mps 577 mmHg 94%
    07:00 -2°C° 0.1 mm 2 mps 578 mmHg 92%
    08:00 -1°C° 0.1 mm 2 mps 578 mmHg 88%
    09:00 +1°C° 0.1 mm 2 mps 578 mmHg 84%
    10:00 +2°C° 0.1 mm 2 mps 578 mmHg 81%
    11:00 +2°C° 0.2 mm 3 mps 578 mmHg 79%
    12:00 +3°C° 0.2 mm 3 mps 578 mmHg 77%
    13:00 +3°C° 0.2 mm 3 mps 578 mmHg 75%
    14:00 +3°C° 0.3 mm 3 mps 578 mmHg 76%
    15:00 +3°C° 0.3 mm 3 mps 578 mmHg 77%
    16:00 +3°C° 0.3 mm 3 mps 577 mmHg 78%
    17:00 +2°C° 1 mm 3 mps 577 mmHg 83%
    18:00 +1°C° 1 mm 2 mps 576 mmHg 89%
    19:00 -1°C° 1 mm 2 mps 576 mmHg 94%
    20:00 -1°C° 1.1 mm 2 mps 575 mmHg 95%
    21:00 -1°C° 1.1 mm 2 mps 575 mmHg 96%
    22:00 -1°C° 1.1 mm 2 mps 575 mmHg 97%
    23:00 -2°C° 0.6 mm 2 mps 575 mmHg 97%

    Day after tomorrow, 26 April, Wednesday

    Time Temperature Precipitation Wind Pressure Humidity
    00:00 -2°C° 0.6 mm 2 mps 575 mmHg 97%
    01:00 -2°C° 0.6 mm 2 mps 575 mmHg 97%
    02:00 -2°C° 1.2 mm 2 mps 575 mmHg 97%
    03:00 -3°C° 1.2 mm 2 mps 574 mmHg 97%
    04:00 -1°C° 1.2 mm 1 mps 574 mmHg 97%
    05:00 -1°C° 1.5 mm 1 mps 574 mmHg 97%
    06:00 -1°C° 1.5 mm 1 mps 574 mmHg 96%
    07:00 0°C° 1.5 mm 1 mps 575 mmHg 96%
    08:00 0°C° 2 mm 1 mps 575 mmHg 95%
    09:00 0°C° 2 mm 1 mps 575 mmHg 94%
    10:00 -2°C° 2 mm 2 mps 575 mmHg 94%
    11:00 -1°C° 1.7 mm 2 mps 575 mmHg 93%
    12:00 -1°C° 1.7 mm 2 mps 575 mmHg 93%
    13:00 -1°C° 1.7 mm 2 mps 575 mmHg 92%
    14:00 -1°C° 1 mm 2 mps 575 mmHg 92%
    15:00 -1°C° 1 mm 2 mps 575 mmHg 91%
    16:00 -1°C° 1 mm 2 mps 575 mmHg 90%
    17:00 -2°C° 1.6 mm 2 mps 574 mmHg 92%
    18:00 -2°C° 1.6 mm 2 mps 574 mmHg 94%
    19:00 -1°C° 1.6 mm 1 mps 573 mmHg 96%
    20:00 -2°C° 1 mm 1 mps 573 mmHg 97%
    21:00 -2°C° 1 mm 1 mps 573 mmHg 97%
    22:00 -3°C° 1 mm 1 mps 573 mmHg 97%
    23:00 -3°C° 0.6 mm 1 mps 573 mmHg 97%

    27 April, Thursday

    Time Temperature Precipitation Wind Pressure Humidity
    00:00 -3°C° 0.6 mm 1 mps 573 mmHg 97%
    01:00 -3°C° 0.6 mm 1 mps 573 mmHg 97%
    02:00 -4°C° 0.3 mm 1 mps 573 mmHg 97%
    03:00 -4°C° 0.3 mm 1 mps 572 mmHg 97%
    04:00 -6°C° 0.3 mm 1 mps 572 mmHg 97%
    05:00 -4°C° 0.3 mm 1 mps 573 mmHg 96%
    06:00 -4°C° 0.3 mm 1 mps 573 mmHg 94%
    07:00 -3°C° 0.3 mm 1 mps 574 mmHg 93%
    08:00 -2°C° 0.3 mm 1 mps 574 mmHg 90%
    09:00 -1°C° 0.3 mm 1 mps 575 mmHg 86%
    10:00 0°C° 0.3 mm 1 mps 576 mmHg 83%
    11:00 -2°C° 0.5 mm 2 mps 576 mmHg 82%
    12:00 -2°C° 0.5 mm 2 mps 576 mmHg 81%
    13:00 -2°C° 0.5 mm 2 mps 576 mmHg 80%
    14:00 -2°C° 0.6 mm 2 mps 576 mmHg 82%
    15:00 -3°C° 0.6 mm 2 mps 576 mmHg 83%
    16:00 -3°C° 0.6 mm 2 mps 575 mmHg 84%
    17:00 -4°C° 0.6 mm 2 mps 575 mmHg 86%
    18:00 -5°C° 0.6 mm 2 mps 575 mmHg 88%
    19:00 -6°C° 0.6 mm 2 mps 575 mmHg 90%
    20:00 -7°C° 0.4 mm 2 mps 575 mmHg 90%
    21:00 -8°C° 0.4 mm 2 mps 575 mmHg 90%
    22:00 -8°C° 0.4 mm 2 mps 575 mmHg 90%
    23:00 -9°C° 0.2 mm 2 mps 574 mmHg 90%

    28 April, Friday

    Time Temperature Precipitation Wind Pressure Humidity
    00:00 -9°C° 0.2 mm 2 mps 574 mmHg 89%
    01:00 -10°C° 0.2 mm 2 mps 574 mmHg 89%
    02:00 -10°C° 0.1 mm 2 mps 574 mmHg 89%
    03:00 -10°C° 0.1 mm 2 mps 573 mmHg 89%
    04:00 -10°C° 0.1 mm 2 mps 573 mmHg 89%
    05:00 -10°C° 0.2 mm 2 mps 574 mmHg 87%
    06:00 -9°C° 0.2 mm 2 mps 574 mmHg 86%
    07:00 -9°C° 0.2 mm 2 mps 575 mmHg 84%
    08:00 -8°C° 0.2 mm 2 mps 575 mmHg 82%
    09:00 -7°C° 0.2 mm 2 mps 576 mmHg 79%
    10:00 -6°C° 0.2 mm 2 mps 576 mmHg 77%
    11:00 -5°C° 0.3 mm 2 mps 577 mmHg 76%
    12:00 -5°C° 0.3 mm 2 mps 577 mmHg 76%
    13:00 -4°C° 0.3 mm 2 mps 577 mmHg 75%
    14:00 -4°C° 0.3 mm 2 mps 577 mmHg 76%
    15:00 -4°C° 0.3 mm 2 mps 577 mmHg 76%
    16:00 -4°C° 0.3 mm 2 mps 577 mmHg 77%
    17:00 -6°C° 0.1 mm 2 mps 577 mmHg 80%
    18:00 -7°C° 0.1 mm 2 mps 576 mmHg 83%
    19:00 -8°C° 0.1 mm 2 mps 576 mmHg 86%
    20:00 -10°C° 0 mm 2 mps 576 mmHg 87%
    21:00 -13°C° 0 mm 2 mps 575 mmHg 87%
    22:00 -15°C° 0 mm 2 mps 575 mmHg 88%
    23:00 -16°C° 0 mm 2 mps 574 mmHg 88%

    29 April, Saturday

    Time Temperature Precipitation Wind Pressure Humidity
    00:00 -17°C° 0 mm 2 mps 574 mmHg 87%
    01:00 -18°C° 0 mm 2 mps 573 mmHg 87%
    02:00 -18°C° 0 mm 2 mps 573 mmHg 86%
    03:00 -18°C° 0 mm 2 mps 573 mmHg 85%
    04:00 -18°C° 0 mm 2 mps 573 mmHg 84%
    05:00 -13°C° 0 mm 1 mps 575 mmHg 81%
    06:00 -11°C° 0 mm 1 mps 577 mmHg 78%
    07:00 -8°C° 0 mm 1 mps 578 mmHg 76%
    08:00 -6°C° 0 mm 1 mps 579 mmHg 72%
    09:00 -3°C° 0 mm 1 mps 580 mmHg 69%
    10:00 -1°C° 0 mm 1 mps 581 mmHg 66%
    11:00 0°C° 0 mm 1 mps 581 mmHg 67%
    12:00 +1°C° 0 mm 1 mps 581 mmHg 68%
    13:00 +1°C° 0 mm 1 mps 581 mmHg 69%
    14:00 +1°C° 0.1 mm 1 mps 581 mmHg 71%
    15:00 +1°C° 0.1 mm 1 mps 581 mmHg 72%
    16:00 +1°C° 0.1 mm 1 mps 581 mmHg 73%
    17:00 -1°C° 0 mm 1 mps 580 mmHg 78%
    18:00 -3°C° 0 mm 1 mps 579 mmHg 83%
    19:00 -6°C° 0 mm 1 mps 578 mmHg 87%
    20:00 -7°C° 0 mm 1 mps 578 mmHg 90%
    21:00 -7°C° 0 mm 1 mps 578 mmHg 92%
    22:00 -8°C° 0 mm 1 mps 578 mmHg 94%
    23:00 -8°C° 0 mm 1 mps 578 mmHg 95%
    Show more